Swansboro, NC

7:06 PM EDT on May 29, 2017 (GMT -0400)
Bogue McAlf

Weather History for KNJM - February, 2013

Change the Weather History Date:

Friday, February 22, 2013

  Actual Average (KNKT) Record (KNKT)
Temperature  
Mean Temperature 44 °F -  
Max Temperature 52 °F 56 °F 77 °F (2003)
Min Temperature 39 °F 36 °F 28 °F (1999)
Degree Days  
Heating Degree Days 20    
Moisture  
Dew Point 36 °F    
Average Humidity 71    
Maximum Humidity 93    
Minimum Humidity 53    
Precipitation  
Precipitation 0.00 in - - ()
Sea Level Pressure  
Sea Level Pressure 30.24 in    
Wind  
Wind Speed 8 mph (NE)    
Max Wind Speed 14 mph    
Max Gust Speed -    
Visibility 10 miles    
Events Rain    
Averages and records for this station are not official NWS values.
T = Trace of Precipitation, MM = Missing Value Source: NWS Daily Summary

Daily Weather History Graph

Daily Weather History Graph

Search for Another Location

Airport or City:

Trip Planner

Search our weather history database for the weather conditions in past years. The results will help you decide how hot, cold, wet, or windy it might be!

Date:

Astronomy

Feb. 22, 2013 Rise Set
Actual Time 6:45 AM EST 5:58 PM EST
Civil Twilight 6:20 AM EST 6:23 PM EST
Nautical Twilight 5:50 AM EST 6:52 PM EST
Astronomical Twilight 5:21 AM EST 7:22 PM EST
Moon 3:11 PM EST (2/22) 4:24 AM EST (2/22)
Length of Visible Light 12h 03m
Length of Day
11h 12m
Waxing Gibbous, 90% of the Moon is Illuminated
Feb 22
Waxing Gibbous
Feb 25
Full
Mar 4
Last Quarter
Mar 11
New
Mar 19
First Quarter

Hourly Weather History & Observations

Time (EST) Temp. Windchill Dew Point Humidity Pressure Visibility Wind Dir Wind Speed Gust Speed Precip Events Conditions
1:57 AM 41.0 °F 35.8 °F 30.0 °F 65% 30.28 in 10.0 mi NE 8.1 mph - N/A   Overcast
3:57 AM 41.0 °F 38.0 °F 26.1 °F 55% 30.32 in 10.0 mi North 4.6 mph - N/A   Overcast
4:57 AM 39.9 °F 34.5 °F 24.1 °F 53% 30.33 in 10.0 mi NNE 8.1 mph - N/A   Partly Cloudy
5:57 AM 39.0 °F 35.7 °F 25.0 °F 57% 30.34 in 10.0 mi NNE 4.6 mph - N/A   Partly Cloudy
6:57 AM 39.0 °F 34.0 °F 26.1 °F 60% 30.34 in 10.0 mi NE 6.9 mph - N/A   Clear
7:57 AM 39.0 °F 31.8 °F 28.9 °F 67% 30.29 in 10.0 mi East 11.5 mph - N/A   Overcast
8:57 AM 39.9 °F 34.5 °F 28.9 °F 65% 30.34 in 10.0 mi NE 8.1 mph - 0.00 in Rain Light Rain
9:57 AM 41.0 °F 34.7 °F 32.0 °F 70% 30.32 in 10.0 mi ENE 10.4 mph - 0.00 in   Overcast
10:57 AM 43.0 °F 37.7 °F 30.9 °F 62% 30.32 in 10.0 mi NE 9.2 mph - N/A   Overcast
11:57 AM 46.9 °F - 34.0 °F 61% 30.30 in 10.0 mi ENE 13.8 mph - N/A   Mostly Cloudy
12:57 PM 48.0 °F - 35.1 °F 61% 30.28 in 10.0 mi East 9.2 mph - N/A   Overcast
1:57 PM 50.0 °F - 37.0 °F 61% 30.24 in 10.0 mi ENE 6.9 mph - N/A   Overcast
2:57 PM 48.9 °F - 37.0 °F 64% 30.23 in 10.0 mi NNE 8.1 mph - N/A   Overcast
3:57 PM 46.9 °F - 37.0 °F 68% 30.21 in 10.0 mi NE 10.4 mph - N/A   Overcast
4:57 PM 45.0 °F 41.2 °F 37.9 °F 76% 30.21 in 10.0 mi NNE 6.9 mph - N/A   Overcast
5:57 PM 45.0 °F 40.1 °F 37.9 °F 76% 30.20 in 10.0 mi NNE 9.2 mph - N/A   Overcast
6:57 PM 46.0 °F 42.5 °F 39.0 °F 76% 30.20 in 10.0 mi NE 6.9 mph - N/A   Overcast
7:39 PM 46.4 °F 42.9 °F 41.0 °F 81% 30.18 in 10.0 mi ENE 6.9 mph - 0.00 in Rain Light Rain
7:57 PM 46.0 °F 42.5 °F 41.0 °F 83% 30.19 in 10.0 mi NE 6.9 mph - 0.00 in   Overcast
8:57 PM 46.9 °F - 43.0 °F 86% 30.19 in 10.0 mi ENE 4.6 mph - 0.00 in Rain Light Rain
9:54 PM 46.4 °F 41.9 °F 44.6 °F 93% 30.14 in 10.0 mi East 9.2 mph - 0.00 in   Mostly Cloudy
9:57 PM 46.9 °F - 44.1 °F 90% 30.16 in 10.0 mi East 9.2 mph - 0.00 in   Mostly Cloudy
10:57 PM 48.9 °F - 46.0 °F 90% 30.14 in 10.0 mi East 6.9 mph - N/A   Mostly Cloudy
11:57 PM 52.0 °F - 48.9 °F 89% 30.11 in 10.0 mi East 4.6 mph - N/A   Overcast